This is the latest recevied weather packets stored in our database for station/object YO8SDE-8. If no packets are shown the sender has not sent any weather packets the latest 10 day(s).
| Time | Temp. | Humidity | Pressure | Rain* | Wind** | Luminosity | Snow |
|---|---|---|---|---|---|---|---|
| 1777076830 | 4.44° C | 70% | 1002.5 hPa | 0 mm | - | - | - |
| 1777076530 | 4.44° C | 70% | 1002.6 hPa | 0 mm | - | - | - |
| 1777076230 | 5° C | 70% | 1002.5 hPa | 0 mm | - | - | - |
| 1777075930 | 5.56° C | 70% | 1002.4 hPa | 0 mm | - | - | - |
| 1777075805 | 6.11° C | 72% | 1002.6 hPa | 0 mm | - | - | - |
| 1777075330 | 6.11° C | 72% | 1002.6 hPa | 0 mm | - | - | - |
| 1777075030 | 6.11° C | 73% | 1002.6 hPa | 0 mm | - | - | - |
| 1777074730 | 5.56° C | 73% | 1002.5 hPa | 0 mm | - | - | - |
| 1777074430 | 5° C | 73% | 1002.5 hPa | 0 mm | - | - | - |
| 1777074130 | 4.44° C | 73% | 1002.6 hPa | 0 mm | - | - | - |
| 1777073830 | 3.89° C | 71% | 1002.5 hPa | 0 mm | - | - | - |
| 1777073530 | 3.89° C | 69% | 1002.4 hPa | 0 mm | - | - | - |
| 1777073230 | 4.44° C | 68% | 1002.5 hPa | 0 mm | - | - | - |
| 1777072930 | 5° C | 68% | 1002.6 hPa | 0 mm | - | - | - |
| 1777072630 | 5° C | 68% | 1002.5 hPa | 0 mm | - | - | - |
| 1777072330 | 5.56° C | 69% | 1002.8 hPa | 0 mm | - | - | - |
| 1777072030 | 5° C | 68% | 1002.9 hPa | 0 mm | - | - | - |
| 1777071730 | 5° C | 67% | 1002.9 hPa | 0 mm | - | - | - |
| 1777071430 | 5.56° C | 65% | 1002.8 hPa | 0 mm | - | - | - |
| 1777071130 | 5.56° C | 64% | 1002.7 hPa | 0 mm | - | - | - |
| 1777070830 | 6.11° C | 65% | 1002.8 hPa | 0 mm | - | - | - |
| 1777070530 | 6.11° C | 65% | 1002.8 hPa | 0 mm | - | - | - |
| 1777070230 | 6.11° C | 64% | 1002.9 hPa | 0 mm | - | - | - |
| 1777069930 | 6.67° C | 63% | 1002.9 hPa | 0 mm | - | - | - |
| 1777069630 | 7.22° C | 63% | 1003 hPa | 0 mm | - | - | - |
* Rain latest hour (hover to see other rain measurements)
** Current wind speed in m/s (hover to see current wind gust speed)